XBBFU MMCU-MMCU

Flight info

Callsign XBBFU
Flight time 1h 12m
Altitude 8500
Route LOCAL
Aircraft C152/L-S/C

Departure

Time 2026-04-29 17:47
Airport General Roberto Fierro Villalobos International Airport (MMCU)

Arrival

Time 2026-04-29 19:00
Airport General Roberto Fierro Villalobos International Airport (MMCU)
Time Latitude Longitude Altitude Speed Heading
2026-04-29 17:16 28.70167 -105.96884 4441 ft 0 kts 188°
2026-04-29 17:33 28.70176 -105.96883 4441 ft 2 kts 188°
2026-04-29 17:33 28.70184 -105.96887 4441 ft 0 kts 103°
2026-04-29 17:36 28.70183 -105.96883 4441 ft 4 kts 100°
2026-04-29 17:36 28.70177 -105.96813 4440 ft 9 kts 44°
2026-04-29 17:36 28.70247 -105.96792 4438 ft 10 kts 56°
2026-04-29 17:37 28.70285 -105.96742 4437 ft 13 kts
2026-04-29 17:37 28.70392 -105.96719 4434 ft 13 kts 13°
2026-04-29 17:37 28.70439 -105.96659 4433 ft 12 kts 84°
2026-04-29 17:37 28.70442 -105.96633 4433 ft 0 kts 79°
2026-04-29 17:42 28.70446 -105.96601 4433 ft 10 kts 81°
2026-04-29 17:42 28.70477 -105.96534 4433 ft 10 kts
2026-04-29 17:43 28.70572 -105.96513 4431 ft 17 kts
2026-04-29 17:43 28.70713 -105.96483 4427 ft 24 kts 10°
2026-04-29 17:43 28.70891 -105.96446 4423 ft 28 kts 12°
2026-04-29 17:43 28.71095 -105.96399 4418 ft 32 kts
2026-04-29 17:44 28.71276 -105.96364 4412 ft 12 kts
2026-04-29 17:44 28.71332 -105.96342 4410 ft 0 kts 147°
2026-04-29 17:44 28.71281 -105.96358 4412 ft 9 kts 190°
2026-04-29 17:44 28.71276 -105.96360 4412 ft 0 kts 189°
2026-04-29 17:46 28.71274 -105.96360 4412 ft 3 kts 188°
2026-04-29 17:46 28.71119 -105.96394 4417 ft 43 kts 190°
2026-04-29 17:46 28.70704 -105.96484 4440 ft 74 kts 189°
2026-04-29 17:46 28.70156 -105.96578 4513 ft 83 kts 190°
2026-04-29 17:47 28.69577 -105.96664 4663 ft 83 kts 189°
2026-04-29 17:47 28.69000 -105.96773 4801 ft 85 kts 192°
2026-04-29 17:47 28.68405 -105.96872 4941 ft 88 kts 189°
2026-04-29 17:47 28.67817 -105.96992 5156 ft 84 kts 193°
2026-04-29 17:48 28.67248 -105.97127 5312 ft 85 kts 192°
2026-04-29 17:48 28.66652 -105.97255 5449 ft 88 kts 191°
2026-04-29 17:48 28.66057 -105.97373 5596 ft 87 kts 189°
2026-04-29 17:48 28.65462 -105.97536 5696 ft 88 kts 202°
2026-04-29 17:49 28.64935 -105.97878 5785 ft 88 kts 219°
2026-04-29 17:49 28.64498 -105.98351 5930 ft 84 kts 230°
2026-04-29 17:49 28.64135 -105.98872 6031 ft 84 kts 235°
2026-04-29 17:49 28.63784 -105.99402 6143 ft 83 kts 236°
2026-04-29 17:50 28.63457 -105.99932 6308 ft 80 kts 239°
2026-04-29 17:50 28.63152 -106.00448 6499 ft 78 kts 238°
2026-04-29 17:50 28.62848 -106.00964 6646 ft 79 kts 237°
2026-04-29 17:50 28.62550 -106.01476 6796 ft 76 kts 239°
2026-04-29 17:51 28.62244 -106.01966 6935 ft 76 kts 236°
2026-04-29 17:51 28.61954 -106.02463 7116 ft 77 kts 240°
2026-04-29 17:51 28.61662 -106.02970 7268 ft 77 kts 240°
2026-04-29 17:51 28.61385 -106.03482 7386 ft 76 kts 242°
2026-04-29 17:52 28.61105 -106.03991 7430 ft 78 kts 241°
2026-04-29 17:52 28.60931 -106.04344 7468 ft 77 kts 244°
2026-04-29 17:52 28.60567 -106.05050 7638 ft 76 kts 241°
2026-04-29 17:52 28.60293 -106.05565 7761 ft 75 kts 244°
2026-04-29 17:53 28.60015 -106.06062 7914 ft 75 kts 240°
2026-04-29 17:53 28.59727 -106.06563 8078 ft 75 kts 243°
2026-04-29 17:53 28.59428 -106.07071 8161 ft 80 kts 241°
2026-04-29 17:53 28.59087 -106.07595 8224 ft 82 kts 236°
2026-04-29 17:54 28.58739 -106.08092 8264 ft 81 kts 238°
2026-04-29 17:54 28.58381 -106.08603 8305 ft 83 kts 236°
2026-04-29 17:54 28.57995 -106.09107 8317 ft 85 kts 236°
2026-04-29 17:54 28.57602 -106.09617 8332 ft 86 kts 236°
2026-04-29 17:55 28.57215 -106.10119 8312 ft 86 kts 235°
2026-04-29 17:55 28.56821 -106.10624 8310 ft 85 kts 235°
2026-04-29 17:55 28.56430 -106.11138 8299 ft 88 kts 234°
2026-04-29 17:55 28.56013 -106.11640 8313 ft 85 kts 232°
2026-04-29 17:56 28.55581 -106.12116 8297 ft 88 kts 230°
2026-04-29 17:56 28.55146 -106.12595 8258 ft 88 kts 231°
2026-04-29 17:56 28.54714 -106.13088 8238 ft 88 kts 230°
2026-04-29 17:56 28.54277 -106.13558 8257 ft 86 kts 230°
2026-04-29 17:57 28.53820 -106.14007 8250 ft 88 kts 229°
2026-04-29 17:57 28.53359 -106.14451 8236 ft 84 kts 226°
2026-04-29 17:57 28.52894 -106.14834 8218 ft 82 kts 223°
2026-04-29 17:57 28.52585 -106.15080 8276 ft 82 kts 223°
2026-04-29 17:58 28.51924 -106.15515 8409 ft 84 kts 217°
2026-04-29 17:58 28.51395 -106.15812 8414 ft 87 kts 214°
2026-04-29 17:58 28.50839 -106.16099 8497 ft 89 kts 213°
2026-04-29 17:58 28.50247 -106.16372 8521 ft 93 kts 209°
2026-04-29 17:59 28.49625 -106.16580 8463 ft 94 kts 203°
2026-04-29 17:59 28.48998 -106.16751 8380 ft 92 kts 205°
2026-04-29 17:59 28.48379 -106.16914 8292 ft 92 kts 198°
2026-04-29 17:59 28.47752 -106.17028 8312 ft 92 kts 200°
2026-04-29 18:00 28.47140 -106.17172 8291 ft 87 kts 202°
2026-04-29 18:00 28.46548 -106.17335 8303 ft 88 kts 204°
2026-04-29 18:00 28.45964 -106.17480 8289 ft 88 kts 202°
2026-04-29 18:00 28.45359 -106.17601 8206 ft 86 kts 202°
2026-04-29 18:01 28.44768 -106.17746 8187 ft 87 kts 203°
2026-04-29 18:01 28.44158 -106.17875 8170 ft 92 kts 197°
2026-04-29 18:01 28.43523 -106.17970 8192 ft 90 kts 199°
2026-04-29 18:01 28.42914 -106.18050 8222 ft 86 kts 198°
2026-04-29 18:02 28.42355 -106.18150 8247 ft 76 kts 200°
2026-04-29 18:02 28.41803 -106.18267 8194 ft 87 kts 203°
2026-04-29 18:02 28.41208 -106.18437 8207 ft 90 kts 206°
2026-04-29 18:02 28.40609 -106.18598 8289 ft 81 kts 210°
2026-04-29 18:03 28.40046 -106.18809 8252 ft 87 kts 204°
2026-04-29 18:03 28.39459 -106.18975 8218 ft 88 kts 205°
2026-04-29 18:03 28.38879 -106.19153 8283 ft 85 kts 208°
2026-04-29 18:03 28.38687 -106.19219 8250 ft 86 kts 208°
2026-04-29 18:15 28.38144 -106.19416 8176 ft 90 kts 207°
2026-04-29 18:16 28.37551 -106.19654 8187 ft 90 kts 212°
2026-04-29 18:16 28.36964 -106.19931 8158 ft 90 kts 210°
2026-04-29 18:16 28.36376 -106.20182 8021 ft 90 kts 208°
2026-04-29 18:16 28.35790 -106.20437 7858 ft 92 kts 209°
2026-04-29 18:17 28.35181 -106.20695 7788 ft 94 kts 209°
2026-04-29 18:17 28.34580 -106.21006 7629 ft 93 kts 213°
2026-04-29 18:17 28.34029 -106.21322 7506 ft 86 kts 213°
2026-04-29 18:17 28.33446 -106.21476 7521 ft 89 kts 179°
2026-04-29 18:18 28.32880 -106.21187 7548 ft 93 kts 150°
2026-04-29 18:18 28.32418 -106.20626 7398 ft 101 kts 127°
2026-04-29 18:18 28.32109 -106.19901 7346 ft 104 kts 104°
2026-04-29 18:18 28.32113 -106.19098 7336 ft 103 kts 65°
2026-04-29 18:19 28.32598 -106.18575 7257 ft 95 kts
2026-04-29 18:19 28.33206 -106.18600 7294 ft 84 kts 343°
2026-04-29 18:19 28.33794 -106.18712 7281 ft 87 kts 343°
2026-04-29 18:19 28.34399 -106.18829 7274 ft 88 kts 342°
2026-04-29 18:20 28.35002 -106.18950 7248 ft 88 kts 343°
2026-04-29 18:20 28.35557 -106.19235 7243 ft 86 kts 320°
2026-04-29 18:20 28.36018 -106.19662 7175 ft 86 kts 314°
2026-04-29 18:20 28.36442 -106.20127 7148 ft 83 kts 311°
2026-04-29 18:21 28.36844 -106.20585 7232 ft 81 kts 309°
2026-04-29 18:21 28.37237 -106.21025 7296 ft 80 kts 311°
2026-04-29 18:21 28.37646 -106.21471 7278 ft 79 kts 310°
2026-04-29 18:21 28.38055 -106.21907 7243 ft 80 kts 311°
2026-04-29 18:22 28.38459 -106.22355 7247 ft 85 kts 310°
2026-04-29 18:22 28.39005 -106.22611 7412 ft 80 kts 321°
2026-04-29 18:22 28.39553 -106.22672 7434 ft 95 kts 26°
2026-04-29 18:22 28.39732 -106.21952 7350 ft 107 kts 97°
2026-04-29 18:23 28.39626 -106.21076 7307 ft 114 kts 99°
2026-04-29 18:23 28.39741 -106.20220 7273 ft 114 kts 56°
2026-04-29 18:23 28.40347 -106.19706 7126 ft 106 kts
2026-04-29 18:23 28.40924 -106.20017 7081 ft 92 kts 297°
2026-04-29 18:24 28.41249 -106.20624 7011 ft 91 kts 296°
2026-04-29 18:24 28.41699 -106.21108 7070 ft 90 kts 328°
2026-04-29 18:24 28.42274 -106.20925 7056 ft 102 kts 58°
2026-04-29 18:24 28.42221 -106.20138 7057 ft 105 kts 115°
2026-04-29 18:25 28.41988 -106.19321 7029 ft 109 kts 86°
2026-04-29 18:25 28.42368 -106.18705 7002 ft 101 kts
2026-04-29 18:25 28.42927 -106.18992 6951 ft 87 kts 294°
2026-04-29 18:25 28.43198 -106.19588 6953 ft 82 kts 285°
2026-04-29 18:26 28.43195 -106.20224 6967 ft 84 kts 244°
2026-04-29 18:26 28.42655 -106.20303 6944 ft 103 kts 138°
2026-04-29 18:26 28.42338 -106.19558 6944 ft 104 kts 120°
2026-04-29 18:26 28.41793 -106.19069 7005 ft 101 kts 178°
2026-04-29 18:27 28.41294 -106.19379 7099 ft 79 kts 255°
2026-04-29 18:27 28.41427 -106.19972 6990 ft 82 kts 297°
2026-04-29 18:27 28.41756 -106.20529 6937 ft 84 kts 296°
2026-04-29 18:27 28.41709 -106.21122 6944 ft 83 kts 225°
2026-04-29 18:28 28.41173 -106.20897 6930 ft 108 kts 115°
2026-04-29 18:28 28.40915 -106.20096 6923 ft 106 kts 133°
2026-04-29 18:28 28.40343 -106.19908 7015 ft 82 kts 218°
2026-04-29 18:28 28.40179 -106.20453 6977 ft 78 kts 289°
2026-04-29 18:29 28.40515 -106.20977 6912 ft 87 kts 307°
2026-04-29 18:29 28.40772 -106.21339 6851 ft 87 kts 298°
2026-04-29 18:29 28.40493 -106.21995 6883 ft 85 kts 191°
2026-04-29 18:29 28.40014 -106.21588 6818 ft 99 kts 116°
2026-04-29 18:30 28.39673 -106.20889 6820 ft 97 kts 142°
2026-04-29 18:30 28.39117 -106.20711 6844 ft 83 kts 215°
2026-04-29 18:30 28.38841 -106.21280 6704 ft 92 kts 273°
2026-04-29 18:30 28.39085 -106.21901 6750 ft 85 kts 295°
2026-04-29 18:31 28.39392 -106.22470 6734 ft 87 kts 298°
2026-04-29 18:31 28.39642 -106.23058 6791 ft 78 kts 277°
2026-04-29 18:31 28.39465 -106.23585 6899 ft 77 kts 219°
2026-04-29 18:31 28.38909 -106.23492 6986 ft 97 kts 138°
2026-04-29 18:32 28.38443 -106.22918 6996 ft 102 kts 138°
2026-04-29 18:32 28.37337 -106.22499 6896 ft 84 kts 228°
2026-04-29 18:32 28.37269 -106.23107 6890 ft 87 kts 297°
2026-04-29 18:33 28.37730 -106.23554 6910 ft 89 kts 320°
2026-04-29 18:33 28.38106 -106.24058 6933 ft 83 kts 276°
2026-04-29 18:33 28.37689 -106.24518 6805 ft 109 kts 176°
2026-04-29 18:33 28.37121 -106.24045 6867 ft 104 kts 135°
2026-04-29 18:34 28.36490 -106.23796 6844 ft 98 kts 200°
2026-04-29 18:34 28.36154 -106.24097 6830 ft 89 kts 248°
2026-04-29 18:34 28.36384 -106.24904 6813 ft 89 kts 314°
2026-04-29 18:34 28.36924 -106.25250 6874 ft 91 kts 339°
2026-04-29 18:35 28.37570 -106.25059 6893 ft 103 kts 34°
2026-04-29 18:35 28.37696 -106.24276 6865 ft 111 kts 121°
2026-04-29 18:35 28.37232 -106.23669 6856 ft 98 kts 121°
2026-04-29 18:35 28.37221 -106.22958 6833 ft 94 kts 47°
2026-04-29 18:36 28.37777 -106.22877 6811 ft 91 kts 321°
2026-04-29 18:36 28.38276 -106.23333 6764 ft 91 kts 313°
2026-04-29 18:36 28.38850 -106.23452 6796 ft 96 kts 25°
2026-04-29 18:36 28.39154 -106.22724 6751 ft 115 kts 92°
2026-04-29 18:37 28.38754 -106.21906 6611 ft 123 kts 132°
2026-04-29 18:37 28.38311 -106.21199 6893 ft 97 kts 124°
2026-04-29 18:37 28.37952 -106.20525 6979 ft 102 kts 123°
2026-04-29 18:37 28.37597 -106.19838 7095 ft 101 kts 123°
2026-04-29 18:38 28.37244 -106.19133 7161 ft 102 kts 120°
2026-04-29 18:38 28.36951 -106.18429 7309 ft 99 kts 92°
2026-04-29 18:38 28.37350 -106.17980 7339 ft 87 kts 339°
2026-04-29 18:38 28.37624 -106.18498 7315 ft 83 kts 280°
2026-04-29 18:39 28.37684 -106.19148 7208 ft 83 kts 281°
2026-04-29 18:39 28.37921 -106.19726 7190 ft 81 kts 303°
2026-04-29 18:39 28.38308 -106.20199 7119 ft 85 kts 311°
2026-04-29 18:39 28.38759 -106.20643 7072 ft 84 kts 316°
2026-04-29 18:40 28.39204 -106.21065 6978 ft 83 kts 315°
2026-04-29 18:40 28.39621 -106.21511 6969 ft 81 kts 310°
2026-04-29 18:40 28.40103 -106.21849 6981 ft 90 kts 346°
2026-04-29 18:40 28.40593 -106.21443 6931 ft 107 kts 84°
2026-04-29 18:41 28.41059 -106.19871 6901 ft 89 kts 307°
2026-04-29 18:41 28.41404 -106.20425 6810 ft 83 kts 300°
2026-04-29 18:42 28.41852 -106.20847 6792 ft 92 kts 338°
2026-04-29 18:42 28.42417 -106.20569 6811 ft 106 kts 60°
2026-04-29 18:42 28.42348 -106.19740 6839 ft 106 kts 105°
2026-04-29 18:42 28.42392 -106.18908 6786 ft 109 kts 55°
2026-04-29 18:43 28.42986 -106.18638 6814 ft 89 kts 325°
2026-04-29 18:43 28.43323 -106.19189 6771 ft 85 kts 294°
2026-04-29 18:43 28.43578 -106.19779 6769 ft 83 kts 292°
2026-04-29 18:43 28.43890 -106.20337 6720 ft 86 kts 319°
2026-04-29 18:44 28.44482 -106.20383 6728 ft 95 kts 19°
2026-04-29 18:44 28.45129 -106.20155 6714 ft 100 kts 12°
2026-04-29 18:44 28.45794 -106.19937 6740 ft 98 kts 11°
2026-04-29 18:44 28.46450 -106.19704 6777 ft 99 kts
2026-04-29 18:45 28.47111 -106.19510 6825 ft 101 kts
2026-04-29 18:45 28.47797 -106.19339 6890 ft 100 kts
2026-04-29 18:45 28.48468 -106.19135 6878 ft 100 kts 10°
2026-04-29 18:45 28.49120 -106.18861 6897 ft 100 kts 15°
2026-04-29 18:46 28.49757 -106.18562 6938 ft 98 kts 18°
2026-04-29 18:46 28.50367 -106.18218 6966 ft 98 kts 22°
2026-04-29 18:46 28.50972 -106.17828 6974 ft 100 kts 21°
2026-04-29 18:46 28.51591 -106.17499 7060 ft 98 kts 17°
2026-04-29 18:47 28.52212 -106.17192 7112 ft 96 kts 16°
2026-04-29 18:47 28.52839 -106.16915 7128 ft 98 kts 13°
2026-04-29 18:47 28.53483 -106.16673 7202 ft 98 kts
2026-04-29 18:47 28.54146 -106.16513 7222 ft 96 kts
2026-04-29 18:48 28.54793 -106.16380 7235 ft 97 kts
2026-04-29 18:48 28.55458 -106.16144 7198 ft 103 kts 18°
2026-04-29 18:48 28.56013 -106.15623 7222 ft 108 kts 52°
2026-04-29 18:48 28.56259 -106.14795 7180 ft 112 kts 80°
2026-04-29 18:49 28.56406 -106.13946 7093 ft 107 kts 71°
2026-04-29 18:49 28.56621 -106.13137 6940 ft 107 kts 69°
2026-04-29 18:49 28.56865 -106.12349 6949 ft 105 kts 70°
2026-04-29 18:49 28.57091 -106.11570 6913 ft 104 kts 71°
2026-04-29 18:50 28.57276 -106.10779 6931 ft 103 kts 75°
2026-04-29 18:50 28.57410 -106.09982 6851 ft 105 kts 83°
2026-04-29 18:50 28.57511 -106.09160 6789 ft 103 kts 81°
2026-04-29 18:50 28.57597 -106.08360 6775 ft 101 kts 81°
2026-04-29 18:51 28.57681 -106.07558 6720 ft 102 kts 81°
2026-04-29 18:51 28.57783 -106.06786 6624 ft 95 kts 79°
2026-04-29 18:51 28.57926 -106.06066 6455 ft 96 kts 72°
2026-04-29 18:51 28.58126 -106.05336 6409 ft 99 kts 68°
2026-04-29 18:52 28.58371 -106.04618 6451 ft 96 kts 63°
2026-04-29 18:52 28.58567 -106.04160 6410 ft 98 kts 61°
2026-04-29 18:52 28.58911 -106.03479 6370 ft 102 kts 59°
2026-04-29 18:52 28.59291 -106.02788 6370 ft 104 kts 53°
2026-04-29 18:53 28.59701 -106.02138 6471 ft 101 kts 52°
2026-04-29 18:53 28.60139 -106.01509 6494 ft 102 kts 47°
2026-04-29 18:53 28.60602 -106.00906 6525 ft 101 kts 46°
2026-04-29 18:53 28.61082 -106.00312 6576 ft 102 kts 49°
2026-04-29 18:54 28.61453 -105.99621 6605 ft 103 kts 60°
2026-04-29 18:54 28.61781 -105.98895 6604 ft 102 kts 59°
2026-04-29 18:54 28.62162 -105.98237 6609 ft 96 kts 39°
2026-04-29 18:54 28.62673 -105.97733 6594 ft 98 kts 38°
2026-04-29 18:55 28.63242 -105.97356 6513 ft 98 kts
2026-04-29 18:55 28.63911 -105.97365 6432 ft 96 kts 354°
2026-04-29 18:55 28.64583 -105.97374 6325 ft 95 kts 356°
2026-04-29 18:55 28.65243 -105.97325 6093 ft 97 kts 358°
2026-04-29 18:56 28.65915 -105.97243 5929 ft 98 kts
2026-04-29 18:56 28.66574 -105.97102 5786 ft 95 kts
2026-04-29 18:56 28.67131 -105.97275 5745 ft 81 kts 320°
2026-04-29 18:56 28.67541 -105.97741 5647 ft 83 kts 312°
2026-04-29 18:57 28.68010 -105.98083 5652 ft 80 kts 337°
2026-04-29 18:57 28.68568 -105.98252 5501 ft 86 kts 340°
2026-04-29 18:57 28.69135 -105.98448 5420 ft 83 kts 340°
2026-04-29 18:57 28.69700 -105.98397 5351 ft 89 kts 34°
2026-04-29 18:58 28.70134 -105.97832 5250 ft 98 kts 52°
2026-04-29 18:58 28.70571 -105.97252 5196 ft 96 kts 45°
2026-04-29 18:58 28.71036 -105.96702 5316 ft 96 kts 47°
2026-04-29 18:58 28.71494 -105.96167 5482 ft 91 kts 50°
2026-04-29 18:59 28.71878 -105.95576 5573 ft 94 kts 70°
2026-04-29 18:59 28.71682 -105.94948 5635 ft 93 kts 155°
2026-04-29 18:59 28.71086 -105.95038 5520 ft 87 kts 208°
2026-04-29 18:59 28.70699 -105.95476 5124 ft 77 kts 238°
2026-04-29 19:00 28.70427 -105.95953 4672 ft 67 kts 237°
2026-04-29 19:00 28.70177 -105.96383 4441 ft 62 kts 236°
2026-04-29 19:00 28.69986 -105.96703 4443 ft 47 kts 234°
2026-04-29 19:00 28.69736 -105.97120 4465 ft 75 kts 236°
2026-04-29 19:01 28.69447 -105.97616 4602 ft 76 kts 234°
2026-04-29 19:01 28.69151 -105.98111 4779 ft 74 kts 236°
2026-04-29 19:01 28.68854 -105.98584 5025 ft 72 kts 230°
2026-04-29 19:01 28.68417 -105.98727 5308 ft 72 kts 166°
2026-04-29 19:02 28.67963 -105.98439 5439 ft 78 kts 152°
2026-04-29 19:02 28.67752 -105.98121 5592 ft 78 kts 95°
2026-04-29 19:02 28.68181 -105.97387 5709 ft 93 kts 50°
2026-04-29 19:02 28.68558 -105.96810 5759 ft 87 kts 53°
2026-04-29 19:03 28.68909 -105.96230 5696 ft 90 kts 53°
2026-04-29 19:03 28.69284 -105.95655 5668 ft 94 kts 51°
2026-04-29 19:03 28.69688 -105.95078 5563 ft 90 kts 49°
2026-04-29 19:03 28.70081 -105.94565 5459 ft 84 kts 47°
2026-04-29 19:04 28.70498 -105.94109 5392 ft 80 kts 21°
2026-04-29 19:04 28.71014 -105.94197 5315 ft 79 kts 311°
2026-04-29 19:04 28.70978 -105.94808 5068 ft 85 kts 249°
2026-04-29 19:04 28.70721 -105.95415 4768 ft 84 kts 238°
2026-04-29 19:05 28.70421 -105.95955 4571 ft 78 kts 238°
2026-04-29 19:05 28.70125 -105.96470 4442 ft 74 kts 236°
2026-04-29 19:05 28.69866 -105.96891 4446 ft 64 kts 235°
2026-04-29 19:05 28.69583 -105.97388 4509 ft 79 kts 235°
2026-04-29 19:06 28.69268 -105.97885 4691 ft 78 kts 233°
2026-04-29 19:06 28.68939 -105.98363 4869 ft 77 kts 232°
2026-04-29 19:06 28.68193 -105.99198 5252 ft 77 kts 191°
2026-04-29 19:07 28.67667 -105.99085 5409 ft 79 kts 158°
2026-04-29 19:07 28.67366 -105.98855 5559 ft 80 kts 132°
2026-04-29 19:07 28.67281 -105.97983 5648 ft 91 kts 58°
2026-04-29 19:07 28.67699 -105.97424 5671 ft 97 kts 46°
2026-04-29 19:08 28.68111 -105.96827 5726 ft 95 kts 50°
2026-04-29 19:08 28.68508 -105.96262 5776 ft 92 kts 52°
2026-04-29 19:08 28.68869 -105.95670 5675 ft 92 kts 50°
2026-04-29 19:08 28.69264 -105.95133 5565 ft 88 kts 47°
2026-04-29 19:09 28.69664 -105.94614 5417 ft 89 kts 47°
2026-04-29 19:09 28.70088 -105.94126 5279 ft 86 kts 43°
2026-04-29 19:09 28.70597 -105.93967 5224 ft 78 kts 337°
2026-04-29 19:09 28.71081 -105.94261 5148 ft 79 kts 311°
2026-04-29 19:10 28.71093 -105.94833 4999 ft 81 kts 239°
2026-04-29 19:10 28.70775 -105.95366 4711 ft 80 kts 235°
2026-04-29 19:10 28.70476 -105.95872 4573 ft 74 kts 237°
2026-04-29 19:10 28.70194 -105.96354 4446 ft 73 kts 237°
2026-04-29 19:11 28.69943 -105.96768 4445 ft 53 kts 235°
2026-04-29 19:11 28.69785 -105.97039 4448 ft 24 kts 234°
2026-04-29 19:11 28.69722 -105.97132 4450 ft 10 kts 226°
2026-04-29 19:11 28.69700 -105.97180 4450 ft 1 kts 29°
2026-04-29 19:12 28.69735 -105.97124 4450 ft 11 kts 54°
2026-04-29 19:12 28.69783 -105.97045 4448 ft 13 kts 56°
2026-04-29 19:12 28.69838 -105.96955 4447 ft 15 kts 55°
2026-04-29 19:12 28.69880 -105.96885 4446 ft 17 kts 55°
2026-04-29 19:13 28.69977 -105.96807 4444 ft 9 kts
2026-04-29 19:13 28.70048 -105.96794 4443 ft 12 kts
2026-04-29 19:13 28.70128 -105.96781 4441 ft 9 kts 308°
2026-04-29 19:13 28.70169 -105.96818 4441 ft 7 kts 294°
2026-04-29 19:14 28.70162 -105.96846 4441 ft 3 kts 195°
2026-04-29 19:14 28.70157 -105.96848 4441 ft 0 kts 189°